Regional Weather Roundup
Issued by NWS

Home | Current Version | Previous Version | Graphics & Text | Print | Product List | Glossary On
Versions: 1 2 3 4 5 6 7 8 9 10 11 12 13 14 15 16 17 18 19 20 21 22 23 24 25 26 27 28 29 30 31 32 33 34 35 36 37 38 39 40 41 42 43 44 45 46 47 48 49 50
000
ASUS45 KBOU 240107
RWRCO

WEATHER ROUNDUP FOR COLORADO
NATIONAL WEATHER SERVICE DENVER/BOULDER CO
700 PM MDT SAT MAY 23 2015

NOTE: "FAIR" INDICATES FEW OR NO CLOUDS BELOW 12000 FEET WITH NO
SIGNIFICANT WEATHER AND/OR OBSTRUCTIONS TO VISIBILITY.

COZ001>005-013-030-031-240200-
...NORTHWEST COLORADO...

CITY           SKY/WX    TMP DP  RH WIND       PRES   REMARKS
CRAIG          CLOUDY    51  34  52 S12       29.96F
HAYDEN         CLOUDY    45  34  65 SE10      29.99F
MEEKER         CLOUDY    48  36  63 MISG      29.99R
MOUNT WERNER   NOT AVBL
STEAMBOAT SPGS CLOUDY    40  36  86 S7        30.02R
WALDEN         CLOUDY    41  32  70 N15       30.00S
$$

COZ006>008-011-240200-
...WEST CENTRAL VALLEYS...

CITY           SKY/WX    TMP DP  RH WIND       PRES   REMARKS
GRAND JUNCTION CLOUDY    52  43  71 E7        29.96S
MONTROSE       LGT RAIN  48  39  71 N5        30.01R
EAGLE          MOSUNNY   50  36  57 E10       30.01S
RIFLE          PTSUNNY   57  35  43 W14G20    29.94R
DELTA          CLOUDY    55  41  60 MISG      29.98S
NUCLA          RAIN      45  41  87 S8G21     30.03R
$$

COZ017>023-064>068-240200-
...SOUTHWEST COLORADO...

CITY           SKY/WX    TMP DP  RH WIND       PRES   REMARKS
DURANGO        CLOUDY    48  34  58 NW16      30.01R
CORTEZ         CLOUDY    46  42  86 E6        30.03F
PAGOSA SPRINGS CLOUDY    52  23  33 W9        30.02R
TELLURIDE      SNOW      34  33  97 S6        30.08R VSB 1/4 WCI  29
WOLF CREEK PAS NOT AVBL
$$

COZ009-010-012-014-032>034-037-058>063-240200-
...CENTRAL COLORADO...

CITY           SKY/WX    TMP DP  RH WIND       PRES   REMARKS
ASPEN          CLOUDY    43  34  70 CALM      30.01S
BUENA VISTA    PTSUNNY   47  30  50 NW10G20   29.97F
COPPER MTN     HAZE      32  27  80 W14       30.12S THUNDER VSB<1/4
BERTHOUD PASS  TSTM      23  14  68 MISG      30.14S VSB<1/4
COTTONWOOD PAS PTSUNNY   45  27  49 NW5       30.03F
GUNNISON       MOSUNNY   50  27  40 SW8       30.00S
KREMMLING      RAIN      37  34  87 SW10      30.06R
LEADVILLE      CLOUDY    37  22  54 N6        30.04F
SALIDA         PTSUNNY   53  31  42 NW5       30.03R
SUNLIGHT       CLOUDY    34  32  93 CALM      30.13R
WILKERSON PASS CLOUDY    34  27  75 W7        30.11R WCI  28
$$

COZ069>075-240200-
...SAN LUIS VALLEY/SANGRE DE CRISTO MOUNTAINS...

CITY           SKY/WX    TMP DP  RH WIND       PRES   REMARKS
ALAMOSA        SUNNY     57  19  22 W14G25    29.95S
LA VETA PASS   PTSUNNY  N/A N/A N/A MISG      30.06R
SAGUACHE       PTSUNNY   52  21  30 SW10      29.96R
$$

COZ035-036-038>040-240200-
...NORTHERN COLORADO FRONT RANGE...

CITY           SKY/WX    TMP DP  RH WIND       PRES   REMARKS
DENVER INTL AP PTSUNNY   55  46  71 CALM      29.89R
DMNS CITY PARK   N/A     54  44  70 N3G12     29.90R
AURORA         MOSUNNY   54  44  67 N6        29.90S
FRONT RANGE AP PTSUNNY   55  48  76 E10G17    29.89F
ERIE MUNI ARPT MOSUNNY   56  45  67 N9        29.90R THUNDER
BOULDER MUN AP MOSUNNY   54  43  66 NE7       29.90S THUNDER
CENTENNIAL     MOSUNNY   55  43  63 NE6       29.89F
BROOMFIELD     PTSUNNY   55  45  67 N10       29.91S
FORT COLLINS   MOSUNNY   57  45  62 NE7       29.92R
LONGMONT       MOSUNNY   56  47  71 N7        29.91S
$$

COZ041-046-047-076>085-087-088-240200-
...PIKES PEAK/PALMER DIVIDE AND SOUTHERN FOOTHILLS...

CITY           SKY/WX    TMP DP  RH WIND       PRES   REMARKS
COLO. SPRINGS  MOSUNNY   57  39  51 E5        29.90S
A. F. ACADEMY  MOSUNNY   53  42  66 W2        29.90S
ELLICOTT       NOT AVBL
FALCON         MOSUNNY   53  40  61 E9        29.93S
FORT CARSON    MOSUNNY   60  43  52 N5        29.87F
LIMON          MOSUNNY   54  43  66 NE10      29.89F
MONUMENT HILL  NOT AVBL
TRINIDAD       MOSUNNY   63  33  32 W18       29.87R
$$

COZ042>045-048>051-090-091-240200-
...NORTHEAST COLORADO...

CITY           SKY/WX    TMP DP  RH WIND       PRES   REMARKS
GREELEY ARPT   MOSUNNY   55  48  76 NE6       29.90R
AKRON          CLOUDY    52  50  93 N8        29.90F
BURLINGTON     RAIN      51  48  89 N5        29.92R FOG
WRAY             N/A     63  55  74 E9        29.88S
STERLING       CLOUDY    50  50 100 NE9       29.90R
HOLYOKE        NOT AVBL
FORT MORGAN    CLOUDY    56  49  76 NE12      29.88F
$$

COZ086-089-092>099-240200-
...SOUTHEAST COLORADO...

CITY           SKY/WX    TMP DP  RH WIND       PRES   REMARKS
PUEBLO         LGT RAIN  63  51  65 SE6       29.83R
LA JUNTA       SUNNY     58  51  78 NE17      29.83R
LAMAR          CLOUDY    57  52  83 E10       29.84R
SPRINGFIELD      N/A     62  56  80 S24       29.85R
$$



USA.gov is the U.S. government's official web portal to all federal, state and local government web resources and services.